QPF
0.00 0.00 0.00 0.01 0.05 0.10 0.07 0.00 0.02 0.00 0.00 0.00 0.00 0.00 0.00 0.00 0.00 0.00 0.00 0.00 0.00 0.00 0.00 0.00 0.00 0.00 0.00 0.00 0.00 0.00 0.00 0.00 0.00 0.00 0.00 0.00 0.00 0.00 0.00 0.00 0.00 0.01 0.01
0.00 0.00 0.00 0.00 0.03 0.07 0.05 0.00 0.00 0.00 0.00 0.00 0.00 0.00 0.00 0.00 0.00 0.00 0.00 0.00 0.00 0.00 0.00 0.00 0.00 0.00 0.00 0.00 0.00 0.00 0.00 0.00 0.00 0.00 0.00 0.00 0.00 0.00 0.00 0.01 0.02 0.03 0.04
0.00 0.00 0.00 0.00 0.00 0.00 0.00 0.00 0.00 0.00 0.00 0.00 0.00 0.00 0.00 0.00 0.00 0.00 0.00 0.00 0.00 0.00 0.00 0.00 0.00 0.00 0.00 0.00 0.00 0.00 0.00 0.00 0.00 0.00 0.00 0.00 0.00 0.00 0.00 0.00 0.00 0.01 0.02
0.00 0.00 0.00 0.00 0.00 0.00 0.00 0.00 0.00 0.00 0.00 0.00 0.00 0.00 0.00 0.00 0.00 0.00 0.00 0.00 0.00 0.00 0.00 0.00 0.00 0.00 0.00 0.00 0.00 0.00 0.00 0.00 0.00 0.00 0.00 0.00 0.00 0.00 0.00 0.00 0.00 0.00 0.00
0.00 0.00 0.00 0.00 0.00 0.00 0.00 0.00 0.00 0.00 0.00 0.00 0.00 0.00 0.00 0.00 0.00 0.00 0.00 0.00 0.00 0.00 0.00 0.00 0.00 0.00 0.00 0.00 0.00 0.00 0.00 0.00 0.00 0.00 0.00 0.00 0.00 0.00 0.00 0.00 0.00 0.00 0.00
0.00 0.00 0.00 0.00 0.03 0.02 0.01 0.01 0.00 0.00 0.00 0.00 0.00 0.00 0.00 0.00 0.00 0.00 0.00 0.00 0.00 0.00 0.00 0.00 0.00 0.00 0.00 0.00 0.00 0.00 0.00 0.00 0.00 0.00 0.00 0.00 0.00 0.00 0.00 0.00 0.00 0.00 0.00
0.00 0.00 0.01 0.01 0.33 0.09 0.01 0.01 0.03 0.00 0.00 0.01 0.00 0.00 0.00 0.00 0.00 0.00 0.00 0.00 0.00 0.00 0.00 0.00 0.00 0.00 0.00 0.00 0.00 0.00 0.00 0.00 0.00 0.00 0.00 0.00 0.00 0.00 0.00 0.00 0.00 0.00 0.00
0.00 0.00 0.00 0.08 0.39 0.07 0.00 0.01 0.03 0.00 0.00 0.00 0.01 0.00 0.00 0.00 0.00 0.00 0.00 0.00 0.00 0.00 0.00 0.00 0.00 0.00 0.00 0.00 0.00 0.00 0.00 0.00 0.00 0.00 0.00 0.00 0.00 0.00 0.00 0.00 0.00 0.00 0.00
0.00 0.00 0.00 0.08 0.18 0.07 0.00 0.00 0.00 0.00 0.00 0.02 0.01 0.02 0.03 0.00 0.00 0.00 0.00 0.00 0.00 0.00 0.00 0.00 0.00 0.00 0.00 0.00 0.00 0.00 0.00 0.00 0.00 0.00 0.00 0.00 0.00 0.00 0.00 0.00 0.00 0.00 0.00
0.00 0.00 0.00 0.02 0.13 0.41 0.03 0.00 0.00 0.01 0.01 0.01 0.02 0.05 0.08 0.03 0.00 0.00 0.00 0.00 0.00 0.00 0.00 0.00 0.00 0.00 0.00 0.00 0.00 0.00 0.00 0.00 0.00 0.00 0.00 0.00 0.00 0.00 0.00 0.00 0.00 0.00 0.00
0.00 0.00 0.00 0.01 0.06 0.10 0.04 0.00 0.00 0.02 0.05 0.05 0.06 0.00 0.00 0.00 0.02 0.00 0.00 0.00 0.00 0.00 0.00 0.00 0.00 0.00 0.00 0.00 0.00 0.01 0.00 0.00 0.00 0.00 0.00 0.00 0.00 0.00 0.00 0.00 0.00 0.00 0.00
0.00 0.00 0.00 0.02 0.05 0.09 0.03 0.00 0.00 0.01 0.03 0.25 0.28 0.01 0.03 0.25 0.09 0.02 0.12 0.07 0.00 0.01 0.00 0.00 0.00 0.00 0.00 0.00 0.00 0.01 0.00 0.00 0.00 0.00 0.00 0.00 0.00 0.00 0.00 0.00 0.00 0.00 0.00
0.00 0.01 0.02 0.01 0.01 0.04 0.03 0.01 0.00 0.00 0.00 0.02 0.02 0.00 0.03 0.25 0.13 0.04 0.08 0.52 0.10 0.13 0.13 0.04 0.08 0.01 0.01 0.00 0.00 0.00 0.00 0.00 0.00 0.00 0.00 0.00 0.00 0.00 0.00 0.00 0.00 0.00 0.00
0.00 0.01 0.02 0.02 0.00 0.01 0.01 0.00 0.00 0.00 0.00 0.00 0.00 0.00 0.00 0.00 0.00 0.00 0.00 0.03 0.01 0.03 0.25 0.29 0.18 0.03 0.00 0.00 0.00 0.00 0.00 0.00 0.00 0.00 0.00 0.00 0.00 0.00 0.00 0.00 0.00 0.00 0.00
0.03 0.03 0.01 0.00 0.00 0.00 0.00 0.00 0.00 0.01 0.01 0.00 0.00 0.00 0.00 0.00 0.00 0.00 0.00 0.00 0.00 0.00 0.01 0.06 0.02 0.00 0.00 0.00 0.00 0.00 0.00 0.00 0.00 0.00 0.00 0.00 0.00 0.00 0.00 0.00 0.00 0.00 0.00
0.53 0.32 0.02 0.01 0.00 0.00 0.00 0.01 0.02 0.01 0.00 0.00 0.00 0.00 0.00 0.00 0.00 0.00 0.00 0.00 0.00 0.00 0.00 0.00 0.00 0.00 0.00 0.00 0.00 0.00 0.00 0.00 0.00 0.00 0.00 0.00 0.00 0.00 0.00 0.00 0.00 0.00 0.00
0.11 0.15 0.02 0.01 0.01 0.01 0.01 0.01 0.04 0.03 0.02 0.00 0.00 0.00 0.00 0.00 0.00 0.00 0.00 0.00 0.00 0.00 0.00 0.00 0.00 0.00 0.00 0.00 0.00 0.00 0.00 0.00 0.00 0.00 0.00 0.00 0.00 0.00 0.00 0.00 0.00 0.00 0.00
0.05 0.06 0.05 0.02 0.01 0.04 0.08 0.05 0.01 0.02 0.02 0.00 0.00 0.00 0.00 0.00 0.00 0.00 0.00 0.00 0.00 0.00 0.00 0.00 0.00 0.00 0.00 0.00 0.00 0.00 0.00 0.00 0.00 0.00 0.00 0.00 0.00 0.00 0.00 0.00 0.00 0.00 0.00
0.06 0.03 0.05 0.05 0.09 0.07 0.14 0.07 0.03 0.02 0.02 0.00 0.01 0.00 0.00 0.00 0.01 0.02 0.02 0.01 0.00 0.00 0.00 0.00 0.00 0.00 0.00 0.00 0.00 0.00 0.00 0.00 0.00 0.00 0.00 0.00 0.00 0.00 0.00 0.00 0.00 0.00 0.00
0.03 0.08 0.06 0.05 0.05 0.05 0.14 0.10 0.05 0.05 0.01 0.00 0.01 0.00 0.00 0.00 0.02 0.03 0.03 0.03 0.03 0.00 0.00 0.00 0.02 0.00 0.00 0.00 0.00 0.00 0.00 0.00 0.00 0.00 0.00 0.00 0.00 0.00 0.00 0.00 0.00 0.00 0.00
0.00 0.02 0.06 0.05 0.05 0.07 0.27 0.39 0.32 0.40 0.13 0.06 0.01 0.00 0.01 0.14 0.09 0.02 0.02 0.01 0.03 0.01 0.01 0.00 0.00 0.00 0.00 0.00 0.00 0.00 0.00 0.00 0.00 0.00 0.00 0.00 0.00 0.00 0.00 0.00 0.00 0.00 0.00
0.04 0.03 0.04 0.08 0.11 0.10 0.27 0.12 0.12 0.21 0.31 0.59 0.09 0.07 0.15 0.14 0.11 0.09 0.04 0.00 0.00 0.01 0.01 0.01 0.00 0.00 0.01 0.01 0.00 0.04 0.04 0.01 0.00 0.00 0.00 0.00 0.00 0.00 0.02 0.01 0.01 0.00 0.00
0.14 0.08 0.06 0.07 0.10 0.11 0.05 0.00 0.00 0.02 0.07 0.08 0.09 0.11 0.14 0.14 0.03 0.03 0.02 0.00 0.02 0.03 0.04 0.03 0.01 0.06 0.03 0.07 0.02 0.01 0.01 0.01 0.01 0.00 0.04 0.01 0.01 0.00 0.00 0.03 0.04 0.02 0.03
0.16 0.09 0.07 0.04 0.00 0.00 0.00 0.00 0.06 0.04 0.02 0.05 0.04 0.01 0.02 0.00 0.00 0.00 0.00 0.00 0.01 0.01 0.04 0.02 0.03 0.03 0.02 0.01 0.00 0.00 0.01 0.02 0.01 0.04 0.06 0.03 0.00 0.00 0.00 0.00 0.03 0.07 0.05
0.11 0.06 0.02 0.00 0.00 0.00 0.00 0.03 0.13 0.06 0.01 0.05 0.02 0.00 0.00 0.00 0.00 0.00 0.00 0.00 0.00 0.00 0.00 0.00 0.00 0.00 0.00 0.00 0.00 0.00 0.03 0.03 0.03 0.02 0.04 0.01 0.00 0.00 0.00 0.00 0.01 0.03 0.01
0.08 0.04 0.01 0.00 0.00 0.00 0.00 0.01 0.04 0.05 0.01 0.00 0.00 0.00 0.00 0.00 0.00 0.00 0.00 0.00 0.00 0.00 0.00 0.00 0.00 0.00 0.00 0.00 0.00 0.01 0.02 0.02 0.01 0.00 0.01 0.00 0.00 0.00 0.00 0.00 0.00 0.00 0.00
MSLP
1018.12 1018.10 1018.10 1018.84 1019.44 1020.50 1019.70 1019.13 1018.36 1017.95 1017.94 1017.96 1017.87 1018.13 1018.20 1018.10 1018.53 1019.13 1019.92 1020.31 1020.49 1020.60 1020.65 1020.63 1020.66 1020.67 1020.58 1020.41 1020.15 1019.93 1019.79 1019.60 1019.31 1019.06 1018.86 1018.64 1018.46 1018.34 1018.17 1017.93 1017.74 1017.55 1017.47
1018.37 1018.25 1018.00 1017.93 1019.51 1018.78 1018.90 1018.64 1018.14 1018.20 1018.26 1018.22 1018.30 1018.16 1018.37 1018.57 1018.53 1018.95 1019.64 1020.08 1020.28 1020.40 1020.45 1020.50 1020.46 1020.44 1020.29 1020.16 1019.91 1019.70 1019.48 1019.26 1019.00 1018.75 1018.54 1018.36 1018.11 1017.92 1017.69 1017.44 1017.30 1017.15 1016.97
1018.43 1018.52 1018.22 1018.23 1018.30 1018.42 1018.11 1017.96 1017.83 1017.49 1017.93 1018.16 1018.48 1018.17 1018.24 1018.55 1018.62 1018.69 1019.07 1019.56 1019.90 1020.11 1020.15 1020.18 1020.15 1020.09 1020.01 1019.86 1019.63 1019.39 1019.20 1018.94 1018.75 1018.53 1018.26 1018.12 1017.75 1017.49 1017.28 1017.05 1016.88 1016.65 1016.54
1018.70 1018.46 1018.23 1018.78 1018.26 1018.28 1018.16 1018.20 1017.98 1018.06 1018.02 1018.18 1018.35 1018.24 1018.15 1018.48 1018.63 1018.42 1018.55 1018.98 1019.35 1019.50 1019.84 1019.75 1019.73 1019.64 1019.62 1019.55 1019.33 1019.19 1018.98 1018.78 1018.44 1018.26 1018.06 1017.79 1017.56 1017.26 1016.92 1016.69 1016.55 1016.30 1016.09
1018.62 1018.50 1018.22 1017.92 1017.95 1018.42 1018.36 1018.38 1018.06 1018.17 1018.11 1018.02 1018.03 1018.02 1018.13 1018.38 1018.40 1018.31 1018.51 1018.46 1018.64 1019.02 1019.27 1019.31 1019.33 1019.21 1019.14 1019.07 1018.95 1018.89 1018.83 1018.66 1018.31 1017.96 1017.72 1017.51 1017.33 1017.04 1016.70 1016.37 1016.19 1015.98 1015.68
1018.33 1018.16 1017.84 1018.36 1019.53 1019.31 1018.92 1018.78 1018.43 1018.32 1018.17 1018.16 1018.11 1017.89 1017.90 1018.02 1018.08 1018.20 1018.11 1018.12 1018.38 1018.28 1018.59 1018.72 1018.82 1018.89 1018.89 1018.70 1018.63 1018.64 1018.74 1018.58 1018.25 1017.83 1017.62 1017.24 1017.06 1016.86 1016.54 1016.20 1015.89 1015.64 1015.28
1018.23 1018.12 1019.07 1019.83 1020.95 1021.01 1019.47 1019.13 1019.10 1018.64 1018.48 1018.25 1018.31 1018.01 1018.14 1018.14 1018.18 1018.09 1017.55 1017.70 1017.79 1017.83 1017.86 1018.01 1018.16 1018.27 1018.37 1018.34 1018.42 1018.62 1018.62 1018.46 1018.24 1017.84 1017.66 1017.30 1016.99 1016.63 1016.39 1016.14 1015.84 1015.47 1014.98
1018.44 1017.81 1018.94 1020.61 1021.20 1020.63 1019.40 1019.08 1019.26 1018.60 1018.23 1018.29 1018.69 1018.46 1018.45 1018.47 1017.90 1017.84 1017.68 1017.55 1017.42 1017.18 1017.41 1017.64 1017.75 1017.70 1017.66 1017.51 1017.97 1018.44 1018.36 1018.29 1018.12 1017.84 1017.66 1017.41 1016.98 1016.64 1016.21 1015.99 1015.72 1015.32 1014.92
1018.62 1018.24 1018.34 1019.88 1020.61 1019.90 1018.79 1018.88 1018.94 1018.73 1019.03 1019.44 1019.84 1019.86 1019.00 1018.86 1018.24 1017.97 1018.01 1017.94 1017.70 1017.40 1017.13 1017.20 1017.22 1017.36 1017.36 1017.17 1017.90 1018.23 1018.05 1018.00 1017.99 1017.81 1017.54 1017.29 1016.92 1016.61 1016.16 1015.78 1015.64 1015.19 1014.74
1018.79 1018.83 1018.63 1019.09 1018.88 1019.10 1019.32 1018.88 1018.78 1019.27 1019.75 1020.09 1020.50 1020.33 1018.93 1019.02 1019.25 1018.83 1018.17 1018.02 1017.75 1017.50 1017.26 1016.91 1016.75 1017.01 1017.10 1017.44 1017.71 1017.80 1017.85 1017.82 1017.76 1017.71 1017.38 1017.06 1016.73 1016.49 1016.12 1015.74 1015.49 1015.20 1014.63
1018.62 1018.56 1018.90 1019.05 1020.08 1020.14 1019.46 1019.02 1019.19 1020.00 1020.26 1020.21 1020.22 1019.66 1019.19 1019.07 1019.71 1018.78 1018.50 1018.18 1018.05 1017.47 1017.10 1016.76 1016.57 1016.96 1017.04 1017.05 1017.60 1017.69 1017.62 1017.63 1017.59 1017.48 1017.32 1017.01 1016.65 1016.24 1016.04 1015.69 1015.45 1015.12 1014.71
1018.50 1018.40 1018.49 1018.94 1019.07 1019.33 1019.31 1019.06 1019.28 1020.06 1020.48 1021.81 1021.00 1020.22 1020.61 1019.88 1020.62 1019.50 1019.54 1020.16 1020.12 1019.11 1018.44 1017.41 1017.12 1016.78 1016.70 1017.28 1017.53 1017.68 1017.36 1017.32 1017.45 1017.28 1017.17 1016.96 1016.48 1016.07 1015.88 1015.62 1015.34 1015.08 1014.74
1018.72 1019.01 1018.86 1018.91 1019.06 1019.32 1019.15 1018.98 1019.48 1020.02 1020.23 1020.20 1020.20 1020.24 1020.91 1019.37 1020.24 1020.63 1019.51 1021.51 1022.67 1021.56 1022.03 1021.07 1020.04 1019.24 1018.05 1017.41 1017.63 1017.43 1017.31 1017.26 1017.19 1017.17 1016.96 1016.72 1016.38 1016.02 1015.71 1015.51 1015.22 1015.05 1014.77
1018.77 1018.96 1019.32 1019.23 1019.02 1018.96 1018.96 1018.70 1019.02 1019.40 1019.95 1020.15 1020.14 1019.92 1019.28 1019.36 1019.34 1018.88 1019.44 1020.53 1020.88 1021.70 1021.63 1020.84 1020.75 1019.80 1017.39 1017.22 1017.43 1017.44 1017.28 1017.12 1016.85 1016.82 1016.62 1016.38 1016.28 1015.90 1015.51 1015.31 1015.09 1015.02 1014.90
1018.81 1018.66 1019.05 1019.04 1018.78 1018.50 1018.40 1018.56 1018.89 1018.94 1019.16 1019.33 1019.50 1019.44 1019.39 1019.50 1019.73 1019.43 1019.30 1019.19 1019.19 1019.80 1021.03 1021.16 1021.11 1018.19 1017.55 1017.51 1017.56 1017.28 1016.97 1016.57 1016.46 1016.17 1016.06 1015.93 1016.02 1015.75 1015.30 1015.08 1015.00 1014.93 1014.90
1019.00 1019.96 1019.36 1019.12 1018.66 1018.45 1018.42 1018.69 1019.13 1019.42 1019.35 1019.49 1019.54 1019.89 1019.77 1019.75 1019.93 1019.80 1019.46 1019.42 1018.98 1019.18 1019.60 1019.32 1019.07 1018.22 1017.72 1017.49 1017.26 1016.97 1016.78 1016.26 1015.82 1015.72 1015.69 1015.51 1015.63 1015.35 1014.99 1014.85 1014.86 1014.66 1014.80
1019.49 1019.86 1019.14 1019.06 1018.88 1018.59 1018.60 1018.94 1019.28 1019.46 1019.53 1019.54 1019.60 1019.70 1019.84 1020.01 1020.06 1019.97 1019.77 1019.65 1019.56 1019.43 1019.62 1019.16 1018.70 1018.30 1018.01 1017.69 1017.16 1016.78 1016.52 1016.09 1015.57 1015.54 1015.32 1015.10 1015.30 1014.97 1014.53 1014.52 1014.60 1014.40 1014.38
1018.84 1019.06 1019.00 1018.85 1018.74 1018.71 1018.97 1019.07 1019.13 1019.18 1019.30 1019.18 1019.31 1019.37 1019.48 1019.56 1019.82 1020.07 1020.26 1020.19 1019.72 1019.60 1019.84 1019.79 1019.36 1018.77 1018.10 1017.43 1016.94 1016.79 1016.33 1015.90 1015.46 1015.38 1015.08 1014.83 1015.18 1014.56 1014.19 1014.04 1014.19 1014.25 1014.18
1018.03 1018.02 1018.47 1018.59 1018.74 1018.82 1018.96 1019.13 1018.96 1018.87 1018.88 1018.79 1018.86 1019.10 1019.15 1019.22 1019.48 1019.65 1019.77 1019.78 1019.70 1019.67 1019.68 1019.63 1019.34 1018.78 1018.10 1017.73 1017.27 1017.03 1016.49 1016.00 1015.56 1015.21 1014.95 1014.62 1014.60 1014.31 1013.77 1013.64 1013.95 1014.16 1014.09
1017.86 1018.18 1018.33 1018.50 1018.58 1018.68 1018.93 1018.98 1019.15 1019.40 1019.16 1018.57 1018.44 1018.55 1018.89 1019.22 1019.50 1019.77 1020.00 1020.18 1020.24 1020.22 1019.98 1019.85 1019.56 1019.16 1018.41 1018.13 1017.80 1017.60 1017.29 1016.95 1016.68 1015.91 1015.43 1014.96 1014.47 1013.92 1013.25 1013.08 1013.46 1013.56 1013.69
1017.59 1018.01 1018.39 1018.39 1018.60 1019.28 1019.78 1019.90 1020.36 1019.85 1019.95 1020.08 1019.29 1018.94 1019.06 1019.51 1019.83 1020.15 1020.46 1020.44 1020.55 1020.55 1020.48 1020.20 1019.79 1019.22 1018.83 1018.56 1018.62 1018.52 1018.31 1017.79 1017.20 1016.70 1016.14 1015.29 1014.90 1014.10 1013.32 1013.46 1013.07 1013.14 1013.48
1017.88 1018.07 1018.41 1018.84 1019.60 1020.43 1020.62 1020.80 1021.20 1020.64 1020.79 1018.58 1019.35 1019.80 1019.51 1020.19 1020.53 1020.38 1020.50 1020.51 1021.00 1021.00 1020.86 1020.71 1020.34 1020.02 1019.66 1019.58 1019.27 1019.28 1018.90 1018.45 1017.72 1016.76 1016.55 1015.84 1015.01 1014.53 1013.90 1013.58 1013.56 1013.48 1013.40
1018.28 1018.66 1019.26 1019.77 1020.59 1021.18 1021.04 1020.34 1019.85 1019.79 1019.95 1020.18 1020.38 1020.01 1019.96 1020.83 1021.18 1021.30 1020.90 1020.47 1020.42 1020.50 1020.98 1021.01 1020.61 1020.30 1020.12 1019.78 1019.60 1019.27 1019.12 1018.84 1018.35 1017.30 1016.96 1016.16 1015.23 1014.74 1014.12 1013.85 1013.97 1013.89 1013.93
1019.30 1019.77 1020.11 1020.63 1021.29 1021.78 1021.45 1020.62 1020.03 1019.60 1019.58 1020.00 1020.25 1020.30 1020.98 1022.00 1022.32 1022.04 1021.64 1021.09 1020.80 1020.51 1020.49 1020.62 1020.50 1020.19 1019.80 1019.44 1019.53 1019.46 1019.16 1018.87 1018.27 1017.63 1017.17 1016.62 1015.73 1015.40 1014.72 1014.06 1013.90 1013.70 1013.85
1020.16 1020.91 1021.16 1021.68 1022.08 1022.53 1022.22 1021.22 1020.56 1020.23 1020.51 1021.12 1021.50 1021.68 1022.03 1022.70 1023.10 1022.87 1022.28 1021.90 1021.51 1021.04 1020.50 1020.36 1020.06 1019.94 1019.63 1019.72 1019.64 1019.69 1019.36 1019.01 1018.57 1017.93 1017.74 1017.51 1016.85 1016.09 1015.33 1014.55 1014.07 1013.72 1013.50
1020.97 1021.43 1022.10 1022.32 1022.79 1022.75 1022.92 1022.14 1021.56 1021.25 1021.38 1021.78 1022.29 1022.72 1023.19 1023.32 1023.58 1023.56 1023.23 1022.87 1022.52 1021.97 1021.49 1020.68 1019.84 1019.62 1019.17 1019.50 1019.76 1019.53 1019.58 1019.45 1019.00 1018.45 1018.14 1018.29 1017.49 1016.97 1015.86 1014.87 1014.64 1014.02 1013.48
Thickness
5754 5758 5761 5759 5741 5743 5752 5761 5765 5767 5767 5771 5775 5776 5778 5781 5780 5778 5774 5772 5771 5770 5770 5770 5771 5770 5771 5773 5774 5775 5776 5776 5777 5778 5778 5777 5776 5774 5773 5771 5770 5768 5765
5756 5761 5765 5768 5755 5761 5759 5766 5768 5767 5769 5771 5775 5779 5779 5780 5783 5783 5778 5776 5775 5775 5775 5775 5775 5776 5777 5778 5779 5780 5780 5781 5782 5782 5782 5781 5780 5778 5777 5776 5773 5771 5768
5761 5762 5767 5768 5768 5766 5770 5772 5774 5777 5775 5776 5777 5782 5783 5783 5784 5786 5785 5782 5781 5781 5781 5781 5782 5782 5783 5783 5784 5785 5785 5786 5786 5786 5786 5784 5785 5783 5781 5779 5777 5774 5771
5763 5766 5768 5766 5769 5772 5773 5775 5778 5778 5779 5780 5782 5785 5787 5787 5787 5791 5790 5789 5788 5788 5787 5788 5789 5789 5789 5788 5789 5789 5789 5789 5790 5789 5788 5788 5786 5785 5784 5782 5779 5777 5774
5766 5768 5773 5776 5775 5772 5774 5778 5782 5782 5781 5784 5786 5790 5792 5792 5792 5793 5793 5796 5795 5794 5793 5795 5795 5796 5796 5794 5794 5793 5792 5792 5792 5792 5791 5790 5787 5786 5785 5784 5782 5779 5777
5772 5776 5781 5776 5766 5770 5774 5776 5782 5786 5789 5786 5789 5791 5797 5798 5798 5798 5800 5800 5800 5801 5800 5800 5801 5800 5799 5800 5798 5796 5793 5793 5793 5793 5792 5792 5788 5787 5786 5786 5785 5782 5781
5775 5778 5771 5759 5758 5750 5769 5771 5777 5785 5785 5788 5789 5789 5793 5798 5799 5802 5806 5806 5807 5807 5807 5807 5806 5805 5804 5804 5802 5798 5795 5793 5793 5794 5792 5791 5789 5788 5787 5787 5785 5783 5783
5774 5784 5775 5758 5747 5757 5773 5773 5774 5786 5791 5790 5784 5786 5775 5784 5799 5804 5809 5811 5812 5814 5812 5811 5810 5811 5810 5812 5807 5801 5798 5796 5795 5794 5792 5790 5790 5789 5789 5787 5784 5783 5783
5776 5780 5781 5764 5760 5774 5784 5781 5783 5789 5783 5776 5778 5774 5775 5770 5784 5801 5804 5808 5812 5815 5816 5816 5816 5815 5814 5816 5809 5803 5801 5799 5796 5795 5793 5791 5791 5789 5789 5786 5783 5784 5784
5777 5776 5779 5781 5786 5787 5783 5785 5787 5786 5783 5772 5774 5781 5793 5790 5774 5777 5800 5805 5812 5815 5819 5822 5822 5819 5817 5815 5809 5807 5804 5801 5799 5796 5795 5794 5794 5791 5789 5787 5784 5783 5785
5781 5781 5778 5781 5778 5777 5782 5786 5783 5781 5779 5776 5779 5786 5796 5796 5782 5786 5779 5792 5804 5816 5821 5822 5821 5818 5818 5816 5812 5809 5806 5803 5800 5798 5796 5796 5796 5794 5790 5789 5786 5785 5785
5783 5784 5784 5783 5783 5782 5781 5783 5783 5780 5778 5762 5774 5779 5776 5782 5767 5782 5748 5765 5777 5791 5802 5816 5814 5819 5820 5815 5811 5809 5809 5807 5802 5800 5799 5797 5798 5797 5793 5791 5789 5787 5787
5782 5781 5782 5782 5781 5779 5781 5785 5784 5781 5779 5781 5780 5777 5779 5793 5776 5768 5781 5758 5750 5771 5765 5782 5799 5799 5804 5815 5811 5810 5809 5807 5805 5801 5801 5799 5799 5799 5797 5794 5793 5791 5789
5779 5777 5778 5782 5783 5784 5786 5790 5791 5790 5786 5783 5783 5787 5794 5795 5796 5796 5785 5771 5772 5770 5766 5780 5790 5792 5813 5816 5811 5809 5810 5809 5808 5805 5804 5800 5800 5801 5800 5798 5797 5794 5792
5781 5778 5774 5780 5787 5791 5792 5792 5793 5794 5793 5792 5791 5792 5790 5789 5787 5791 5791 5793 5789 5775 5768 5779 5775 5803 5810 5808 5808 5809 5811 5812 5811 5810 5807 5804 5802 5803 5803 5802 5799 5797 5794
5778 5773 5775 5776 5787 5791 5791 5791 5789 5788 5790 5789 5789 5785 5788 5788 5786 5788 5793 5793 5794 5789 5780 5793 5792 5802 5804 5806 5809 5811 5812 5814 5814 5812 5810 5808 5805 5806 5807 5805 5802 5802 5797
5771 5769 5776 5779 5785 5790 5790 5788 5787 5786 5785 5786 5786 5786 5785 5786 5785 5787 5789 5789 5789 5791 5781 5789 5797 5800 5803 5805 5807 5809 5811 5814 5815 5812 5812 5812 5809 5808 5810 5809 5806 5805 5803
5774 5775 5779 5783 5786 5788 5786 5786 5786 5786 5785 5786 5787 5787 5787 5789 5786 5785 5783 5782 5786 5788 5782 5776 5787 5794 5799 5806 5808 5808 5810 5812 5815 5813 5814 5814 5810 5811 5812 5814 5810 5807 5805
5785 5787 5785 5784 5784 5785 5784 5783 5786 5786 5786 5788 5788 5786 5786 5788 5786 5785 5785 5784 5785 5786 5785 5782 5783 5792 5796 5801 5802 5804 5807 5810 5812 5813 5813 5815 5814 5814 5817 5816 5812 5808 5806
5780 5779 5781 5783 5785 5785 5784 5784 5782 5780 5781 5790 5790 5790 5788 5786 5783 5781 5780 5778 5778 5777 5779 5778 5779 5783 5789 5794 5796 5793 5793 5799 5799 5805 5807 5811 5815 5817 5821 5821 5815 5810 5808
5781 5779 5778 5781 5782 5778 5770 5767 5760 5766 5770 5766 5777 5783 5785 5780 5777 5776 5775 5774 5773 5772 5771 5772 5773 5778 5781 5782 5780 5783 5782 5787 5791 5797 5800 5806 5808 5813 5818 5819 5817 5813 5808
5771 5772 5772 5772 5770 5762 5760 5757 5750 5759 5757 5740 5765 5768 5776 5768 5769 5768 5768 5767 5766 5765 5765 5764 5765 5766 5769 5771 5774 5773 5774 5775 5774 5790 5792 5796 5804 5806 5811 5811 5809 5809 5808
5760 5759 5759 5757 5752 5748 5749 5756 5763 5766 5760 5759 5758 5763 5767 5758 5757 5756 5758 5761 5765 5764 5762 5761 5758 5760 5762 5766 5768 5768 5769 5769 5770 5782 5785 5786 5799 5799 5803 5804 5804 5803 5800
5743 5744 5742 5740 5738 5738 5740 5747 5755 5762 5764 5760 5757 5758 5753 5745 5742 5744 5749 5753 5755 5757 5758 5756 5755 5758 5762 5765 5764 5764 5765 5767 5771 5776 5781 5776 5790 5789 5794 5797 5798 5798 5795
5730 5726 5725 5723 5723 5722 5727 5736 5744 5748 5745 5738 5736 5737 5736 5732 5731 5734 5741 5740 5741 5743 5746 5748 5751 5753 5756 5756 5759 5756 5755 5756 5757 5763 5769 5767 5772 5778 5784 5787 5788 5790 5791
5713 5711 5708 5709 5707 5710 5710 5719 5728 5730 5727 5726 5725 5722 5719 5717 5717 5718 5723 5725 5725 5728 5731 5737 5743 5746 5750 5746 5749 5746 5746 5743 5746 5748 5755 5753 5757 5762 5767 5779 5777 5780 5783